Regional Weather Roundup
Issued by NWS

Home | Current Version | Previous Version | Text Only | Print | Product List | Glossary Off
Versions: 1 2 3 4 5 6 7 8 9 10 11 12 13 14 15 16 17 18 19 20 21 22 23 24 25 26 27 28 29 30 31 32 33 34 35 36 37 38 39 40 41 42 43 44 45 46 47 48 49 50

453
ASUS43 KFSD 080602
RWRSD

WEATHER ROUNDUP FOR SOUTH DAKOTA
NATIONAL WEATHER SERVICE SIOUX FALLS SD
1200 AM CST MON FEB 08 2016

NOTE: "FAIR" INDICATES FEW OR NO CLOUDS BELOW 12,000 FEET WITH NO
SIGNIFICANT WEATHER AND/OR OBSTRUCTIONS TO VISIBILITY.


SDZ001>005-009-010-012>017-080700-
NORTHWEST AND NORTH CENTRAL SOUTH DAKOTA

CITY           SKY/WX    TMP DP  RH WIND       PRES   REMARKS
BUFFALO          N/A     27  14  58 NW28      30.22S WCI  11
FAITH            N/A     28  15  58 NW30G37   30.21S WCI  12
MOBRIDGE       PTCLDY    30  17  58 NW28G45   30.12R WCI  15
$$

SDZ012>016-024>037-041>051-057-063-072>074-080700-
SOUTHWEST AND SOUTH CENTRAL SOUTH DAKOTA

CITY           SKY/WX    TMP DP  RH WIND       PRES   REMARKS
RAPID CTY ARPT CLEAR     30   9  41 NW30G41   30.28S WCI  15
PIERRE         PTCLDY    31  17  56 NW26G37   30.16R WCI  17
CUSTER         CLEAR     22   0  38 N25G37    30.21F WCI   5
ELLSWORTH AFB  CLEAR     30  10  42 NW26G37   30.27F WCI  15
PHILIP         CLEAR     31  17  56 NW25G32   30.25S WCI  17
PINE RIDGE     CLEAR     23   9  55 NW3       30.31R
WINNER         MOCLDY    32  18  56 NW26G36   30.16R WCI  18
$$

SDZ004>011-016>023-039-040-080700-
NORTHEAST SOUTH DAKOTA

CITY           SKY/WX    TMP DP  RH WIND       PRES   REMARKS
ABERDEEN       CLOUDY    28  18  66 N21G33    30.06S WCI  15
WATERTOWN      FLURRIES  20  13  74 N30G41    29.96R WCI   1
BROOKINGS      FLURRIES  20  15  81 N26G32    29.94S WCI   2
SISSETON         N/A     17  13  84 N26G33    30.00R WCI  -2
$$

SDZ017-020-022-023-036>040-048>070-080700-
SOUTHEAST SOUTH DAKOTA

CITY           SKY/WX    TMP DP  RH WIND       PRES   REMARKS
SIOUX FALLS    CLOUDY    24  16  71 N23G39    29.97R WCI   9
HURON          CLOUDY    28  19  69 NW26G37   30.05R WCI  13
MITCHELL       CLEAR     29  20  69 NW28G37   30.06S WCI  14
YANKTON        CLOUDY   N/A N/A N/A NW31G47   30.02F
$$

ABBREVIATIONS USED IN REMARKS
   TC - TEMPERATURE IN CELSIUS
  WCI - WIND CHILL INDEX
   HX - HEAT INDEX
  VSB - VISIBILITY





USA.gov is the U.S. government's official web portal to all federal, state and local government web resources and services.